Regional Weather Roundup
Issued by NWS Albany, NY

Home | Current Version | Previous Version | Text Only | Print | Product List | Glossary On
Versions: 1 2 3 4 5 6 7 8 9 10 11 12 13 14 15 16 17 18 19 20 21 22 23 24 25 26 27 28 29 30 31 32 33 34 35 36 37 38 39 40 41 42 43 44 45 46 47 48 49 50
000
ASUS41 KALY 190510
RWRALY

NEW YORK STATE HOURLY WEATHER ROUNDUP
NATIONAL WEATHER SERVICE ALBANY NY
1200 AM EST FRI DEC 19 2014

NOTE: "FAIR" INDICATES FEW OR NO CLOUDS BELOW 12,000 FEET WITH NO
SIGNIFICANT WEATHER AND/OR NO OBSTRUCTIONS TO VISIBILITY.

NYZ032-033-038>043-046>054-057>066-NYZ062>081-190600-
EAST


CITY           SKY/WX    TMP DP  RH WIND       PRES   REMARKS
ALBANY         CLOUDY    33  25  72 W15       29.95S WCI  23
GLENS FALLS    CLOUDY    32  23  69 NW8       29.92F WCI  25
POUGHKEEPSIE   CLOUDY    37  25  61 W6        29.95F WCI  32
MONTGOMERY     CLOUDY    36  25  64 NW8       29.95R WCI  30
WHITE PLAINS   PTCLDY    34  25  69 NW10      29.92F WCI  26
ISLIP          PTCLDY    31  25  78 W3        29.94S
NEW YORK CITY  PTCLDY    38  28  67 NW12      29.97S WCI  30
CENTRAL PARK   MOCLDY    37  25  61 W6        29.99S WCI  32
$$

NYZ005>009-017-018-044>046-055-056-190600-
CENTRAL


CITY           SKY/WX    TMP DP  RH WIND       PRES   REMARKS
FULTON         MIX PCPN  30  24  78 W10       30.02S WCI  21
SYRACUSE       FRZ DRZL  29  27  92 W13G20    30.02R WCI  19
ROME           LGT SNOW  29  27  92 NW9       30.00S FOG     WCI  20
ELMIRA         CLOUDY    32  28  85 NW7       30.01R WCI  26
BINGHAMTON     CLOUDY    27  26  96 NW9       29.94S WCI  18
MONTICELLO     CLOUDY    28  25  86 NW9G22    29.94S WCI  20
$$

NYZ026>034-041>043-190600-
NORTH


CITY           SKY/WX    TMP DP  RH WIND       PRES   REMARKS
WATERTOWN      CLOUDY    28  21  75 NW7       30.03R WCI  21
FORT DRUM      NOT AVBL
MASSENA        CLOUDY    26  20  77 W12       30.01R WCI  16
SARANAC LAKE   CLOUDY    21 N/A N/A W7        29.87S WCI  12
PLATTSBURGH    CLOUDY    28  21  75 NW7       29.95R WCI  21
$$

NYZ001>004-010>016-019>021-190600-
WEST


CITY           SKY/WX    TMP DP  RH WIND       PRES   REMARKS
NIAGARA FALLS  MIX PCPN  28  22  78 W13       30.09R WCI  17
BUFFALO        CLOUDY    27  22  81 W10       30.08R WCI  17
DUNKIRK        CLOUDY    30  24  78 NW12      30.10R WCI  20
JAMESTOWN      CLOUDY    27  23  86 W12       30.03S WCI  16
WELLSVILLE     FRZ RAIN  27  24  89 W9        29.97F WCI  18
ROCHESTER      FRZ DRZL  28  25  88 NW12      30.06S WCI  18
PENN YAN       FRZ RAIN  29  26  89 NW7       30.02S FOG     WCI  22
$$

             KEY
       WCI = WIND CHILL INDEX
       VSB = VISIBILITY
       HX  = HEAT INDEX
$$


USA.gov is the U.S. government's official web portal to all federal, state and local government web resources and services.